Temperature
10 9 9 8 8 8 8 8 8 8 7 7 7 6 6 6 6 6 6 6 6 6 6 6 6 6 6 6 6 7 7 7 8 10 11 11 12 12 13 13 14 14 14
10 10 9 9 9 9 9 8 8 7 7 7 6 6 6 6 5 5 5 5 5 5 5 5 5 5 5 5 6 6 6 7 9 10 10 10 11 11 11 12 13 13 13
10 10 10 9 9 9 8 8 8 7 7 6 6 6 5 5 5 5 5 5 4 5 5 5 5 5 5 5 5 5 5 6 9 10 10 10 10 10 10 11 11 12 13
10 10 10 9 9 9 8 8 7 7 6 6 6 5 5 4 4 4 4 4 4 4 4 4 4 5 5 6 6 6 6 7 9 9 9 9 9 9 8 8 9 10 11
10 10 9 9 9 8 8 8 7 6 6 6 5 5 4 4 4 3 3 3 3 3 3 3 4 4 5 6 6 7 7 8 9 9 9 9 8 8 6 6 6 7 9
10 9 9 9 8 8 8 7 7 6 6 6 5 5 5 4 3 3 3 2 2 2 3 3 3 4 5 5 5 6 6 7 8 8 8 8 8 7 5 4 4 5 6
9 9 9 8 8 8 8 7 7 6 6 6 6 6 5 4 3 3 2 2 2 3 3 3 4 4 5 5 4 4 5 5 6 6 6 7 7 6 5 4 4 3 4
9 9 9 8 8 8 8 7 7 6 6 6 6 6 6 5 4 3 3 3 3 3 4 4 4 4 4 4 3 3 3 4 4 4 5 5 5 5 4 4 3 3 3
8 8 8 8 8 8 8 7 7 7 7 6 6 6 5 5 5 4 4 3 4 4 4 4 4 4 4 3 3 2 3 3 3 3 3 4 4 3 3 3 2 2 2
8 8 8 8 8 8 8 7 7 7 7 6 6 6 5 5 4 4 4 4 4 4 4 4 4 3 3 3 2 2 2 2 2 2 2 2 1 1 1 1 1 1 1
8 8 8 8 8 8 7 7 7 7 6 6 6 5 5 5 4 4 4 4 4 4 3 3 3 2 2 2 1 1 0 0 -0 -0 0 0 -1 -1 -1 -1 -1 -0 -0
9 9 8 8 8 8 7 7 7 7 6 6 6 5 5 5 4 4 4 4 3 3 3 2 2 1 1 0 -0 -1 -1 -2 -2 -3 -2 -2 -3 -3 -3 -3 -2 -2 -2
10 9 9 8 8 8 7 7 7 6 6 6 6 5 5 4 4 4 3 3 3 2 2 1 1 0 -1 -1 -2 -2 -3 -4 -4 -5 -5 -5 -5 -5 -4 -4 -4 -4 -3
10 10 9 8 8 7 7 7 7 6 6 6 6 5 5 4 4 3 3 3 2 2 1 0 -0 -1 -2 -3 -3 -4 -5 -5 -6 -6 -6 -6 -6 -6 -6 -5 -5 -5 -4
10 10 9 8 8 7 7 7 6 6 6 6 6 5 5 4 3 3 2 2 1 1 0 -1 -1 -2 -3 -4 -5 -5 -6 -6 -6 -6 -7 -7 -7 -7 -7 -7 -6 -6 -5
11 10 9 8 8 7 7 7 6 6 6 6 5 5 4 3 3 2 2 1 0 -0 -1 -2 -2 -3 -4 -5 -6 -6 -6 -7 -7 -7 -7 -7 -7 -7 -8 -8 -7 -7 -6
12 11 9 9 8 7 7 6 6 6 6 5 5 5 4 3 2 2 1 0 -0 -1 -2 -2 -3 -4 -5 -6 -6 -6 -7 -7 -7 -7 -7 -7 -7 -7 -7 -8 -8 -8 -7
12 11 10 9 8 8 7 6 6 6 5 5 5 4 4 3 2 1 1 0 -1 -1 -2 -3 -4 -4 -5 -6 -6 -6 -6 -7 -7 -7 -7 -7 -8 -8 -8 -8 -9 -8 -8
12 11 10 9 9 8 7 6 6 5 5 5 4 4 3 3 2 1 0 -0 -1 -2 -3 -3 -4 -5 -5 -6 -7 -6 -6 -7 -7 -7 -7 -8 -8 -8 -8 -8 -9 -9 -9
12 11 10 9 9 8 7 6 6 5 5 5 4 4 3 3 2 1 0 -0 -1 -2 -3 -4 -4 -5 -5 -7 -7 -7 -6 -6 -6 -7 -8 -8 -8 -8 -9 -9 -9 -9 -9
12 11 11 10 9 8 7 7 6 6 6 5 4 4 3 2 2 1 0 -1 -1 -2 -3 -4 -4 -4 -5 -6 -7 -7 -6 -6 -7 -7 -8 -8 -8 -9 -9 -9 -9 -9 -9
13 12 12 11 10 9 9 8 7 6 5 4 4 4 3 2 2 1 0 -1 -2 -2 -3 -4 -5 -5 -5 -6 -8 -9 -9 -9 -9 -8 -8 -8 -9 -9 -9 -9 -10 -10 -10
15 14 14 13 12 11 9 8 6 5 5 4 4 4 3 3 2 1 0 -1 -2 -2 -3 -4 -5 -5 -6 -6 -8 -10 -11 -11 -11 -9 -9 -9 -9 -9 -9 -10 -10 -10 -10
17 16 15 14 13 12 10 9 7 7 6 6 5 4 3 2 2 1 0 -1 -2 -2 -3 -4 -4 -5 -6 -7 -8 -9 -10 -11 -12 -12 -10 -10 -10 -10 -10 -10 -10 -10 -10
18 17 16 15 14 13 12 10 9 7 7 5 4 3 3 2 2 1 0 -1 -2 -2 -3 -4 -4 -5 -6 -7 -8 -9 -9 -10 -11 -12 -12 -10 -10 -11 -11 -11 -11 -11 -11
18 18 17 16 15 14 13 11 10 8 7 5 4 4 3 2 2 1 -0 -1 -2 -2 -3 -4 -4 -5 -6 -7 -8 -9 -9 -10 -10 -11 -12 -12 -11 -11 -11 -11 -11 -11 -11
Wind_Speed
3 3 4 7 7 8 10 11 12 13 14 16 17 18 19 19 21 22 22 23 24 24 25 26 27 27 28 28 29 29 29 29 29 30 30 31 32 30 31 30 30 25 29
8 5 7 8 8 8 9 10 11 12 13 15 16 17 18 19 19 20 21 22 23 24 25 25 26 27 27 28 28 28 28 28 29 28 29 28 30 30 30 30 30 27 29
9 7 7 9 8 8 9 9 10 11 12 14 15 16 17 17 18 19 20 21 22 23 24 25 25 26 27 27 27 28 28 27 28 27 26 24 26 27 29 30 29 29 29
11 10 7 9 9 8 8 8 9 10 11 13 14 15 15 16 17 18 19 20 20 21 22 23 24 25 26 27 28 28 28 27 27 26 22 22 23 25 28 28 29 29 29
11 10 8 10 9 8 7 8 8 9 10 11 12 13 14 15 16 16 17 18 19 20 21 22 23 24 25 26 27 28 29 28 27 24 21 22 22 24 28 28 28 28 29
10 9 7 11 9 8 7 7 7 8 9 10 12 12 13 13 14 15 15 16 17 18 19 21 22 23 24 25 26 27 28 28 26 23 22 22 21 26 29 28 28 28 28
10 8 6 10 10 8 7 6 7 7 8 9 11 11 12 12 13 13 14 15 16 17 19 20 22 23 24 25 25 26 27 27 26 23 23 23 23 29 29 29 29 28 28
12 8 5 10 10 8 7 6 6 7 8 8 10 11 11 11 12 12 13 14 15 17 18 20 21 22 23 24 24 24 24 24 23 22 22 23 26 30 30 30 30 29 29
12 10 7 8 8 7 6 7 7 7 7 8 9 10 10 11 11 12 13 14 15 16 18 19 21 21 22 22 22 22 22 22 21 18 20 20 27 30 30 30 30 31 31
9 10 10 9 9 8 6 7 7 7 7 8 9 10 10 11 11 12 13 13 14 16 17 19 19 20 20 21 21 21 21 20 20 18 17 20 27 29 30 30 31 31 31
7 8 11 11 11 10 9 8 8 8 8 8 8 9 10 11 11 11 12 13 14 16 17 18 18 19 18 19 20 20 19 19 20 18 17 23 27 28 29 30 30 31 32
11 8 11 13 13 12 10 10 10 9 9 9 9 10 10 10 9 9 11 13 13 15 16 17 17 17 17 18 19 18 18 20 18 17 18 24 26 27 28 29 30 31 32
11 9 11 15 15 14 13 12 12 11 11 10 10 10 9 8 8 8 10 11 13 13 15 15 15 15 15 15 16 16 17 17 16 16 18 22 24 25 27 28 30 31 32
10 11 10 17 16 16 15 14 14 13 12 12 11 11 9 8 6 6 7 8 10 11 11 12 12 13 13 14 15 15 16 15 16 15 17 20 22 24 26 28 29 31 32
14 14 12 17 17 17 16 15 14 15 14 14 13 12 11 9 7 5 4 5 6 6 7 8 9 10 11 13 13 13 15 17 17 16 16 19 21 22 24 27 29 31 32
18 16 13 15 19 18 16 15 16 16 16 15 14 14 12 10 8 6 4 2 1 2 3 5 8 9 10 12 13 15 16 17 16 17 17 17 19 21 24 26 29 31 33
17 16 15 15 19 18 17 17 16 17 17 16 16 15 14 12 10 8 5 4 4 4 5 6 8 9 9 9 10 14 14 15 15 17 17 16 16 19 22 25 28 30 32
14 15 16 16 16 17 17 17 16 18 18 17 17 17 16 15 13 11 8 7 8 7 7 7 8 4 5 5 6 10 12 13 15 16 15 15 16 15 19 24 27 30 32
16 16 17 15 15 17 17 16 16 17 17 17 17 17 18 17 16 14 11 10 9 9 8 7 5 4 5 6 7 7 9 11 14 14 13 14 15 16 18 20 26 29 31
15 16 17 17 14 13 13 10 9 10 13 16 17 18 19 19 18 16 13 12 11 8 6 6 5 5 5 6 8 8 7 10 12 11 11 12 14 16 17 19 22 24 29
15 17 18 18 15 12 7 7 6 6 6 8 15 19 20 20 19 17 12 12 11 7 6 6 4 5 4 3 4 6 8 8 8 6 9 10 13 15 16 18 20 21 23
19 19 19 20 19 17 13 8 5 4 5 8 13 17 20 20 20 16 15 12 11 7 6 6 5 3 4 2 2 4 5 4 4 7 6 7 9 12 14 19 20 22 22
20 23 21 22 20 19 14 8 4 3 3 5 7 9 17 20 20 18 16 15 12 9 6 7 6 6 4 3 4 3 3 5 7 5 7 7 7 6 11 16 19 21 24
23 19 20 20 20 19 17 16 14 12 11 11 8 9 13 19 19 19 17 16 13 11 7 7 7 6 5 5 4 5 6 6 5 7 5 5 8 9 9 14 17 21 24
17 17 18 17 19 19 20 21 19 16 11 6 6 9 9 13 17 18 17 16 13 11 10 9 6 7 6 6 5 5 6 6 8 8 13 13 9 7 8 9 13 18 23
12 14 15 18 19 19 21 20 21 19 13 10 10 10 10 7 9 15 16 15 14 12 11 10 9 8 7 8 7 6 6 6 6 8 10 16 17 11 9 7 9 15 20
Wind_Direction
201 194 134 107 91 77 66 57 50 46 41 37 35 35 34 33 32 30 29 29 29 29 29 29 29 28 28 28 26 25 24 26 27 22 16 10 5 4 5 4 2 358 357
159 143 129 114 98 84 73 62 55 49 44 40 37 36 34 34 33 31 30 30 29 28 28 28 28 28 28 26 24 23 23 26 25 21 15 8 1 360 1 1 359 356 354
138 122 119 120 108 94 82 70 61 54 48 43 40 38 35 35 34 31 31 30 29 28 28 27 26 26 25 24 23 21 22 27 23 19 14 6 358 356 358 357 355 353 351
138 129 128 129 118 105 93 78 67 60 54 48 44 41 38 37 36 32 32 30 29 29 28 27 26 24 23 22 21 20 21 25 22 18 12 4 356 353 356 355 353 350 347
142 139 148 136 126 115 103 89 74 66 60 54 50 44 40 40 38 32 32 30 29 28 27 27 26 24 23 20 19 18 19 21 20 16 10 1 352 350 354 353 350 347 343
147 147 160 146 138 126 114 100 83 73 66 60 57 50 43 42 40 33 33 30 29 28 27 26 25 24 22 20 19 18 17 18 17 10 5 358 346 346 350 349 347 343 340
153 155 171 157 149 139 126 113 96 83 75 68 65 56 47 44 41 34 33 31 29 28 26 26 25 24 22 20 18 18 17 16 13 4 359 353 341 347 346 345 343 340 337
154 150 149 161 154 148 139 128 113 97 87 79 74 64 53 47 41 36 33 32 31 29 27 26 24 23 22 19 18 17 16 16 10 1 354 347 343 345 344 342 340 337 334
157 149 133 126 140 146 145 142 128 114 102 92 85 75 62 52 43 39 32 33 32 31 29 27 25 22 21 18 15 15 14 13 9 359 353 341 341 342 341 340 337 334 331
164 161 153 146 147 141 131 145 139 127 116 105 96 87 74 61 48 39 32 32 33 32 30 27 24 21 20 15 11 11 11 8 3 356 347 336 339 339 338 336 334 331 328
184 181 171 166 164 159 145 138 139 132 125 115 106 98 90 79 60 39 33 34 34 33 30 27 23 20 18 13 7 6 7 1 357 350 342 335 337 336 334 333 332 329 325
194 195 188 180 175 169 160 154 148 142 138 134 128 120 105 89 72 53 40 36 36 35 31 26 22 20 15 8 2 360 355 350 349 342 335 332 332 332 331 331 329 327 323
192 192 191 189 182 176 169 165 164 160 156 153 149 141 127 106 84 68 55 46 43 38 34 24 20 14 7 358 349 342 337 337 331 328 325 327 328 328 328 328 327 325 322
189 198 191 190 186 184 180 178 177 174 172 170 168 163 150 133 111 83 62 49 43 35 27 17 8 358 349 341 331 322 320 318 314 312 314 323 325 326 325 325 324 323 321
198 199 194 190 189 187 185 183 187 185 184 181 178 177 169 155 142 116 81 55 40 27 14 358 345 334 324 317 311 307 304 303 301 301 304 317 323 324 324 323 322 321 319
203 201 194 192 194 190 189 191 191 191 189 186 186 186 182 171 161 151 136 105 24 336 322 313 305 298 293 292 290 292 292 291 290 296 300 306 317 323 323 321 320 318 315
203 198 195 196 195 193 195 196 196 194 191 191 192 191 189 184 178 174 175 199 228 245 264 279 284 279 276 276 278 284 282 281 286 292 295 295 301 314 320 320 317 314 313
198 197 198 199 195 198 197 198 196 196 195 196 195 195 195 194 191 187 192 213 228 234 245 257 262 259 263 267 269 274 275 278 283 287 288 291 297 303 310 316 315 314 312
199 197 197 199 194 197 197 197 197 196 198 199 197 197 199 199 198 196 202 218 225 226 234 247 246 233 257 268 270 264 261 267 274 281 283 288 294 299 300 308 314 313 310
199 198 200 201 196 189 187 186 191 199 204 202 199 200 201 201 201 201 207 219 222 219 228 233 246 246 244 259 278 278 266 263 264 263 270 283 291 295 298 301 303 305 307
198 200 201 201 196 184 180 184 187 205 202 201 205 204 202 202 201 200 205 213 215 214 221 222 234 262 262 250 271 281 269 254 247 250 259 273 281 285 291 297 299 299 300
204 204 204 205 199 196 197 184 176 173 190 202 202 203 204 202 201 203 206 209 213 214 218 221 215 239 261 264 272 306 314 293 251 250 248 262 271 279 289 296 296 296 298
208 207 207 206 202 199 190 171 149 136 142 176 198 203 203 201 201 202 204 209 212 210 217 220 212 218 244 254 210 234 292 298 310 259 236 254 259 265 278 285 290 296 301
213 207 207 203 202 198 188 191 189 196 201 199 192 193 194 198 200 204 208 209 212 214 215 222 220 211 221 250 237 221 223 238 287 303 280 252 253 270 270 285 290 294 296
210 204 205 202 203 198 196 199 201 208 205 176 175 183 191 196 201 204 207 209 212 216 219 221 221 219 218 231 233 230 239 244 237 263 293 297 285 259 263 265 278 287 292
202 200 199 201 206 200 200 203 206 208 194 180 186 190 195 196 201 205 207 209 214 217 220 223 223 224 228 232 239 234 235 242 247 250 273 290 294 288 266 260 269 279 284
Height
1594 1596 1597 1598 1598 1598 1597 1596 1595 1594 1593 1592 1591 1589 1588 1586 1584 1582 1581 1579 1577 1576 1574 1573 1571 1569 1567 1566 1564 1562 1561 1558 1556 1556 1557 1557 1557 1557 1556 1556 1556 1556 1556
1593 1595 1596 1597 1597 1597 1596 1596 1595 1594 1593 1592 1591 1589 1588 1587 1585 1583 1581 1579 1578 1576 1574 1572 1570 1569 1567 1565 1563 1561 1559 1557 1554 1554 1555 1555 1556 1556 1555 1554 1554 1554 1554
1592 1594 1595 1596 1596 1596 1596 1595 1594 1594 1593 1592 1590 1589 1588 1586 1584 1583 1581 1580 1578 1576 1574 1572 1570 1568 1566 1564 1562 1560 1558 1554 1552 1553 1553 1552 1552 1553 1553 1553 1552 1552 1551
1591 1593 1594 1595 1595 1595 1595 1595 1594 1593 1592 1591 1590 1588 1587 1586 1584 1582 1581 1579 1577 1576 1574 1572 1569 1567 1565 1563 1561 1559 1557 1553 1551 1551 1550 1550 1549 1550 1550 1549 1549 1549 1549
1590 1592 1593 1594 1594 1594 1594 1594 1593 1593 1592 1590 1589 1587 1586 1585 1583 1582 1580 1579 1577 1575 1573 1571 1569 1567 1565 1563 1562 1560 1557 1554 1553 1551 1550 1549 1547 1547 1547 1546 1546 1546 1546
1589 1591 1592 1593 1593 1594 1594 1593 1593 1592 1591 1589 1588 1586 1585 1584 1582 1581 1579 1578 1576 1574 1573 1571 1569 1566 1565 1563 1561 1560 1558 1556 1554 1552 1550 1548 1547 1545 1545 1544 1543 1542 1542
1588 1589 1591 1592 1592 1593 1593 1592 1592 1591 1590 1588 1587 1585 1584 1582 1581 1579 1578 1576 1575 1573 1572 1570 1568 1566 1564 1563 1561 1559 1557 1555 1554 1552 1550 1548 1546 1544 1543 1541 1540 1539 1538
1587 1588 1589 1590 1591 1591 1591 1591 1590 1589 1588 1586 1585 1584 1582 1581 1579 1578 1577 1575 1574 1572 1571 1569 1568 1566 1564 1562 1560 1558 1555 1553 1551 1550 1548 1547 1545 1543 1541 1539 1537 1536 1535
1585 1587 1588 1589 1589 1590 1590 1589 1589 1588 1586 1585 1583 1582 1581 1579 1578 1576 1575 1574 1572 1571 1570 1568 1567 1565 1563 1561 1559 1556 1553 1551 1549 1547 1545 1544 1542 1540 1538 1536 1534 1533 1531
1582 1584 1585 1587 1587 1588 1588 1588 1587 1586 1585 1584 1582 1581 1579 1578 1577 1575 1574 1573 1571 1570 1569 1567 1565 1563 1562 1559 1557 1554 1552 1549 1547 1545 1543 1540 1538 1537 1535 1533 1530 1528 1527
1578 1580 1582 1584 1585 1586 1586 1586 1585 1584 1583 1582 1581 1579 1578 1577 1575 1574 1573 1571 1570 1569 1567 1565 1563 1561 1559 1557 1555 1552 1549 1546 1544 1542 1540 1537 1535 1533 1532 1529 1526 1524 1522
1573 1576 1579 1581 1582 1583 1583 1583 1583 1582 1581 1580 1579 1577 1576 1575 1573 1572 1571 1570 1568 1567 1565 1563 1561 1558 1556 1554 1551 1549 1545 1543 1540 1537 1535 1533 1532 1530 1528 1525 1522 1520 1517
1571 1573 1575 1577 1578 1580 1580 1580 1580 1580 1579 1578 1577 1575 1574 1572 1571 1570 1569 1568 1566 1565 1563 1560 1558 1555 1552 1550 1547 1544 1541 1538 1535 1532 1530 1528 1526 1525 1523 1520 1518 1515 1512
1566 1569 1571 1573 1574 1576 1576 1577 1577 1577 1576 1575 1574 1573 1571 1570 1569 1567 1566 1565 1563 1561 1559 1557 1554 1551 1548 1545 1542 1539 1536 1533 1530 1528 1525 1523 1521 1519 1517 1515 1512 1510 1507
1562 1564 1567 1568 1570 1571 1572 1573 1573 1573 1573 1572 1571 1570 1568 1567 1566 1564 1563 1561 1559 1557 1555 1552 1549 1546 1543 1540 1537 1534 1532 1529 1526 1524 1521 1518 1515 1513 1511 1509 1507 1504 1502
1556 1559 1561 1563 1565 1566 1567 1568 1569 1569 1569 1568 1567 1566 1565 1564 1562 1560 1559 1557 1555 1552 1550 1547 1544 1541 1538 1535 1533 1530 1528 1525 1522 1519 1516 1513 1510 1507 1505 1503 1502 1499 1496
1551 1553 1555 1558 1560 1561 1562 1563 1564 1564 1564 1564 1563 1562 1561 1559 1558 1556 1554 1552 1550 1547 1545 1542 1539 1536 1533 1530 1528 1526 1523 1520 1517 1514 1511 1508 1505 1502 1499 1497 1495 1493 1491
1546 1548 1550 1552 1553 1555 1556 1558 1558 1559 1559 1559 1558 1557 1556 1555 1553 1551 1550 1547 1545 1542 1540 1537 1535 1532 1529 1526 1524 1521 1518 1515 1512 1509 1506 1503 1500 1497 1494 1491 1489 1487 1484
1539 1542 1543 1545 1546 1549 1551 1552 1552 1552 1553 1553 1552 1552 1551 1549 1548 1546 1545 1542 1540 1537 1535 1533 1530 1527 1524 1521 1518 1515 1512 1509 1506 1503 1500 1498 1495 1492 1489 1486 1483 1479 1476
1533 1535 1536 1538 1540 1542 1544 1545 1545 1545 1546 1546 1546 1546 1545 1544 1542 1541 1539 1537 1535 1533 1531 1528 1526 1523 1520 1516 1512 1509 1506 1502 1499 1497 1495 1492 1490 1487 1484 1480 1477 1472 1468
1525 1526 1528 1530 1531 1534 1535 1535 1536 1536 1539 1539 1540 1540 1539 1538 1537 1535 1534 1532 1530 1528 1526 1524 1521 1519 1516 1512 1506 1500 1497 1494 1492 1489 1488 1486 1484 1481 1478 1475 1471 1466 1461
1516 1518 1520 1521 1523 1524 1526 1528 1529 1531 1531 1533 1533 1533 1532 1532 1531 1530 1528 1527 1525 1523 1521 1519 1516 1513 1511 1508 1503 1496 1490 1486 1483 1482 1481 1479 1477 1475 1472 1468 1464 1459 1454
1508 1509 1511 1513 1514 1516 1518 1520 1521 1522 1522 1523 1524 1525 1525 1525 1524 1523 1523 1521 1519 1517 1516 1514 1511 1508 1506 1504 1501 1498 1492 1484 1478 1473 1472 1471 1469 1467 1464 1461 1456 1452 1447
1500 1502 1504 1505 1506 1508 1509 1510 1510 1510 1511 1514 1517 1519 1518 1518 1517 1517 1516 1515 1513 1512 1510 1508 1506 1504 1501 1499 1497 1494 1492 1487 1481 1470 1465 1464 1462 1459 1456 1453 1449 1444 1439
1494 1495 1496 1497 1498 1499 1499 1500 1501 1501 1503 1507 1509 1510 1510 1510 1510 1510 1509 1508 1507 1506 1504 1502 1500 1498 1496 1493 1491 1489 1486 1483 1479 1473 1462 1455 1453 1451 1448 1445 1441 1436 1432
1487 1487 1488 1489 1489 1490 1490 1491 1491 1492 1494 1497 1499 1501 1502 1503 1503 1502 1502 1501 1500 1499 1498 1496 1494 1492 1490 1488 1485 1483 1480 1478 1474 1470 1461 1452 1445 1441 1439 1436 1433 1429 1424